When you browse on this site, cookies collect data to enhance your experience and personalize the content and advertising you see.
Visit our Privacy Policy to learn more. By continuing to use the site, you agree to this use of cookies and data.
  • In Österreich
  • Länderverzeichnis
  • Für 7 Tage
  • Wassertemperatur
  • Satellitenkarten
  • Wetterkarte
  • News
  • Widgets
  • user-avatar
    Anmelden

    Stündliche Wetter Jampil

    Heute, 21 April, Sonntag

    Zeit Temperatur Niederschläge Wind Luftdruck Luftfeuchtigkeit
    00:00 +9°C° 0 mm 1 m/S 757 mmHg 60%
    01:00 +9°C° 0 mm 1 m/S 757 mmHg 61%
    02:00 +9°C° 0 mm 1 m/S 757 mmHg 62%
    03:00 +9°C° 0.1 mm 1 m/S 756 mmHg 64%
    04:00 +8°C° 0.1 mm 1 m/S 756 mmHg 66%
    05:00 +8°C° 0.1 mm 1 m/S 756 mmHg 68%
    06:00 +8°C° 0.3 mm 1 m/S 756 mmHg 70%
    07:00 +8°C° 0.3 mm 1 m/S 756 mmHg 71%
    08:00 +8°C° 0.3 mm 2 m/S 756 mmHg 72%
    09:00 +8°C° 0.3 mm 2 m/S 756 mmHg 69%
    10:00 +9°C° 0.3 mm 3 m/S 755 mmHg 66%
    11:00 +10°C° 0.3 mm 4 m/S 755 mmHg 62%
    12:00 +11°C° 0 mm 4 m/S 755 mmHg 58%
    13:00 +12°C° 0 mm 5 m/S 755 mmHg 54%
    14:00 +13°C° 0 mm 5 m/S 755 mmHg 50%
    15:00 +13°C° 0 mm 5 m/S 754 mmHg 49%
    16:00 +13°C° 0 mm 5 m/S 754 mmHg 49%
    17:00 +14°C° 0 mm 5 m/S 754 mmHg 49%
    18:00 +13°C° 0 mm 4 m/S 754 mmHg 52%
    19:00 +12°C° 0 mm 4 m/S 754 mmHg 55%
    20:00 +11°C° 0 mm 4 m/S 754 mmHg 58%
    21:00 +10°C° 0 mm 4 m/S 755 mmHg 58%
    22:00 +10°C° 0 mm 4 m/S 755 mmHg 59%
    23:00 +8°C° 0 mm 4 m/S 755 mmHg 60%

    Morgen, 22 April, Montag

    Zeit Temperatur Niederschläge Wind Luftdruck Luftfeuchtigkeit
    00:00 +8°C° 0.1 mm 4 m/S 755 mmHg 59%
    01:00 +9°C° 0.1 mm 3 m/S 755 mmHg 59%
    02:00 +8°C° 0.1 mm 3 m/S 756 mmHg 59%
    03:00 +8°C° 0 mm 3 m/S 756 mmHg 59%
    04:00 +7°C° 0 mm 3 m/S 756 mmHg 59%
    05:00 +7°C° 0 mm 3 m/S 756 mmHg 59%
    06:00 +7°C° 0 mm 4 m/S 756 mmHg 55%
    07:00 +8°C° 0 mm 4 m/S 757 mmHg 51%
    08:00 +9°C° 0 mm 5 m/S 757 mmHg 47%
    09:00 +12°C° 0 mm 5 m/S 757 mmHg 45%
    10:00 +13°C° 0 mm 6 m/S 758 mmHg 42%
    11:00 +14°C° 0 mm 6 m/S 758 mmHg 39%
    12:00 +14°C° 0 mm 6 m/S 758 mmHg 40%
    13:00 +14°C° 0 mm 5 m/S 758 mmHg 41%
    14:00 +14°C° 0 mm 5 m/S 758 mmHg 41%
    15:00 +14°C° 0 mm 5 m/S 758 mmHg 42%
    16:00 +14°C° 0 mm 5 m/S 758 mmHg 43%
    17:00 +14°C° 0 mm 5 m/S 758 mmHg 44%
    18:00 +12°C° 0 mm 4 m/S 758 mmHg 48%
    19:00 +11°C° 0 mm 4 m/S 758 mmHg 53%
    20:00 +10°C° 0 mm 3 m/S 758 mmHg 57%
    21:00 +9°C° 0 mm 3 m/S 759 mmHg 59%
    22:00 +9°C° 0 mm 3 m/S 759 mmHg 60%
    23:00 +8°C° 0 mm 3 m/S 759 mmHg 62%

    übermorgen, 23 April, Dienstag

    Zeit Temperatur Niederschläge Wind Luftdruck Luftfeuchtigkeit
    00:00 +8°C° 0 mm 3 m/S 759 mmHg 63%
    01:00 +7°C° 0 mm 2 m/S 759 mmHg 65%
    02:00 +7°C° 0 mm 2 m/S 759 mmHg 66%
    03:00 +7°C° 0 mm 2 m/S 759 mmHg 67%
    04:00 +6°C° 0 mm 2 m/S 760 mmHg 68%
    05:00 +6°C° 0 mm 2 m/S 760 mmHg 69%
    06:00 +8°C° 0 mm 3 m/S 760 mmHg 64%
    07:00 +10°C° 0 mm 4 m/S 760 mmHg 59%
    08:00 +11°C° 0 mm 4 m/S 760 mmHg 55%
    09:00 +13°C° 0 mm 5 m/S 760 mmHg 50%
    10:00 +14°C° 0 mm 6 m/S 760 mmHg 45%
    11:00 +15°C° 0 mm 6 m/S 760 mmHg 40%
    12:00 +16°C° 0 mm 6 m/S 760 mmHg 39%
    13:00 +16°C° 0 mm 6 m/S 760 mmHg 38%
    14:00 +17°C° 0 mm 6 m/S 759 mmHg 38%
    15:00 +16°C° 0 mm 6 m/S 759 mmHg 40%
    16:00 +16°C° 0 mm 6 m/S 759 mmHg 41%
    17:00 +16°C° 0 mm 6 m/S 759 mmHg 43%
    18:00 +14°C° 0 mm 5 m/S 759 mmHg 47%
    19:00 +13°C° 0 mm 4 m/S 759 mmHg 51%
    20:00 +11°C° 0 mm 4 m/S 759 mmHg 56%
    21:00 +11°C° 0 mm 4 m/S 759 mmHg 56%
    22:00 +10°C° 0 mm 3 m/S 760 mmHg 56%
    23:00 +9°C° 0 mm 3 m/S 760 mmHg 57%

    24 April, Mittwoch

    Zeit Temperatur Niederschläge Wind Luftdruck Luftfeuchtigkeit
    00:00 +9°C° 0 mm 3 m/S 760 mmHg 58%
    01:00 +8°C° 0 mm 3 m/S 760 mmHg 59%
    02:00 +8°C° 0 mm 3 m/S 760 mmHg 59%
    03:00 +7°C° 0 mm 4 m/S 760 mmHg 61%
    04:00 +7°C° 0 mm 4 m/S 760 mmHg 62%
    05:00 +7°C° 0 mm 4 m/S 760 mmHg 63%
    06:00 +8°C° 0 mm 5 m/S 760 mmHg 60%
    07:00 +10°C° 0 mm 6 m/S 760 mmHg 56%
    08:00 +11°C° 0 mm 7 m/S 760 mmHg 52%
    09:00 +12°C° 0 mm 7 m/S 760 mmHg 49%
    10:00 +14°C° 0 mm 7 m/S 760 mmHg 46%
    11:00 +15°C° 0 mm 8 m/S 760 mmHg 43%
    12:00 +16°C° 0 mm 7 m/S 760 mmHg 42%
    13:00 +17°C° 0 mm 7 m/S 760 mmHg 41%
    14:00 +17°C° 0 mm 7 m/S 760 mmHg 40%
    15:00 +17°C° 0 mm 7 m/S 759 mmHg 40%
    16:00 +17°C° 0 mm 7 m/S 759 mmHg 41%
    17:00 +17°C° 0 mm 6 m/S 759 mmHg 42%
    18:00 +15°C° 0 mm 6 m/S 759 mmHg 46%
    19:00 +14°C° 0 mm 5 m/S 759 mmHg 49%
    20:00 +13°C° 0 mm 4 m/S 759 mmHg 53%
    21:00 +12°C° 0 mm 4 m/S 760 mmHg 55%
    22:00 +11°C° 0 mm 4 m/S 760 mmHg 57%
    23:00 +11°C° 0 mm 4 m/S 760 mmHg 59%

    25 April, Donnerstag

    Zeit Temperatur Niederschläge Wind Luftdruck Luftfeuchtigkeit
    00:00 +10°C° 0 mm 4 m/S 760 mmHg 62%
    01:00 +8°C° 0 mm 4 m/S 760 mmHg 64%
    02:00 +9°C° 0 mm 3 m/S 760 mmHg 67%
    03:00 +8°C° 0 mm 3 m/S 760 mmHg 68%
    04:00 +8°C° 0 mm 3 m/S 760 mmHg 70%
    05:00 +8°C° 0 mm 3 m/S 760 mmHg 71%
    06:00 +8°C° 0 mm 4 m/S 760 mmHg 65%
    07:00 +10°C° 0 mm 5 m/S 760 mmHg 59%
    08:00 +11°C° 0 mm 6 m/S 760 mmHg 53%
    09:00 +14°C° 0 mm 6 m/S 760 mmHg 50%
    10:00 +15°C° 0 mm 7 m/S 760 mmHg 47%
    11:00 +17°C° 0 mm 7 m/S 760 mmHg 44%
    12:00 +17°C° 0 mm 7 m/S 759 mmHg 43%
    13:00 +18°C° 0 mm 7 m/S 759 mmHg 42%
    14:00 +20°C° 0 mm 7 m/S 759 mmHg 41%
    15:00 +20°C° 0 mm 7 m/S 758 mmHg 42%
    16:00 +20°C° 0 mm 6 m/S 758 mmHg 43%
    17:00 +20°C° 0 mm 6 m/S 758 mmHg 44%
    18:00 +17°C° 0 mm 6 m/S 757 mmHg 48%
    19:00 +15°C° 0 mm 5 m/S 757 mmHg 52%
    20:00 +14°C° 0 mm 5 m/S 757 mmHg 56%
    21:00 +13°C° 0 mm 5 m/S 757 mmHg 56%
    22:00 +12°C° 0 mm 5 m/S 757 mmHg 56%
    23:00 +12°C° 0 mm 4 m/S 757 mmHg 57%

    26 April, Freitag

    Zeit Temperatur Niederschläge Wind Luftdruck Luftfeuchtigkeit
    00:00 +11°C° 0 mm 4 m/S 757 mmHg 59%
    01:00 +10°C° 0 mm 4 m/S 757 mmHg 61%
    02:00 +10°C° 0 mm 3 m/S 756 mmHg 63%
    03:00 +8°C° 0 mm 4 m/S 756 mmHg 64%
    04:00 +8°C° 0 mm 4 m/S 756 mmHg 64%
    05:00 +7°C° 0 mm 4 m/S 756 mmHg 64%
    06:00 +10°C° 0 mm 4 m/S 756 mmHg 59%
    07:00 +12°C° 0 mm 5 m/S 756 mmHg 54%
    08:00 +13°C° 0 mm 6 m/S 756 mmHg 49%
    09:00 +15°C° 0 mm 7 m/S 755 mmHg 48%
    10:00 +17°C° 0 mm 7 m/S 755 mmHg 47%
    11:00 +18°C° 0 mm 8 m/S 755 mmHg 45%
    12:00 +20°C° 0 mm 8 m/S 755 mmHg 45%
    13:00 +21°C° 0 mm 7 m/S 754 mmHg 44%
    14:00 +21°C° 0 mm 7 m/S 754 mmHg 43%
    15:00 +21°C° 0 mm 7 m/S 753 mmHg 45%
    16:00 +21°C° 0 mm 6 m/S 753 mmHg 46%
    17:00 +21°C° 0 mm 6 m/S 753 mmHg 47%
    18:00 +19°C° 0 mm 5 m/S 753 mmHg 53%
    19:00 +17°C° 0 mm 5 m/S 753 mmHg 58%
    20:00 +15°C° 0 mm 4 m/S 753 mmHg 64%
    21:00 +15°C° 0 mm 4 m/S 752 mmHg 65%
    22:00 +14°C° 0 mm 4 m/S 752 mmHg 67%
    23:00 +13°C° 0 mm 4 m/S 752 mmHg 68%
    Mehr zeigen